Other Surface Observations
Issued by NWS Tucson, AZ

Home | Current Version | Previous Version | Text Only | Print | Product List | Glossary On
Versions: 1 2 3 4 5 6 7 8 9 10 11 12 13 14 15 16 17 18 19 20 21 22 23 24 25 26 27 28 29 30 31 32 33 34 35 36 37 38 39 40 41 42 43 44 45 46 47 48 49 50
059
SXUS55 KTWC 071115
OSOTWC

WEATHER ROUNDUP FOR SOUTHEAST ARIZONA
NATIONAL WEATHER SERVICE TUCSON AZ
415 AM MST WED DEC 07 2016

AZZ504>506-514-071215-
LOCATION       SKY/WX    TMP DP  RH WIND       PRES   REMARKS
TUCSON         CLOUDY    55  41  59 E7        29.97S
DAVIS-MONTHAN  CLOUDY    51  39  63 E7        29.96S
CHILDRENS PARK N/A      N/A N/A  56 SE4               PIMA CO DEQ
ALVERNON/22ND  N/A       56 N/A N/A SE3               PIMA CO DEQ
CHERRY/GLENN   N/A       52 N/A N/A E4                PIMA CO DEQ
TANGERINE      N/A       49 N/A N/A E1                PIMA CO DEQ
CONTL RANCH    N/A       49  37  62 SE3               PIMA CO DEQ
GRANT/1ST      N/A       53  38  56 E5                PIMA CO DEQ
CRAYCROFT/22ND N/A       55  43  64 N/A               PIMA CO DEQ
GOLFLINKS/KOLB N/A       54  42  63 SE3               PIMA CO DEQ
AJO/12TH       N/A       49  34  57 S4                PIMA CO DEQ
FAIRGROUNDS    N/A      N/A N/A N/A N/A               PIMA CO DEQ
SAGUARO        N/A       54  40  58 NE4               *SABINO CYN
SAN CARLOS     N/A       40  32  74 CALM              *SAN CARLOS
GREEN VALLEY   N/A       54  43  65 SW8               PIMA CO DEQ
HORSE CAMP CYN N/A       46  37  71 NW3               *ARAVAIPA CYN
RINCON MTNS    N/A       31  31  100 SW3G10           *NR MANNING CAMP
$$

AZZ509>511-071215-
LOCATION       SKY/WX    TMP DP  RH WIND       PRES   REMARKS
SAFFORD        MOCLDY    40  29  64 S5        29.95S
STRAY HORSE    N/A       33  21  61 N/A               *
TRAIL CABIN    N/A       38  31  76 W7G10             *N OF GRANVILLE
BLACK HILLS    NOT AVBL
DRY LAKE       N/A       34  32  94 W8G15             *NATANES MTNS
NOON CREEK     N/A       41  30  64 SW7               *PINALENO MTNS
COLUMBINE      N/A       27  11  51 SW8G14            *PINALENO MTNS
GUTHRIE        N/A       40  30  66 W12G17            *SW OF GUTHRIE
$$

AZZ502-503-513-071215-
LOCATION       SKY/WX    TMP DP  RH WIND       PRES   REMARKS
NOGALES        CLOUDY    50  40  68 SE5       29.98F
SELLS          N/A       55  44  66 SE4               *
SASABE         N/A       46  41  83 W4                *ALTAR VLY
HOPKINS        N/A       38  32  80 S5G11             *SANTA RITA MTNS
CARR CYN       N/A       44  31  60 E2                *W OF HEREFORD
$$

AZZ507-508-512-071215-
LOCATION       SKY/WX    TMP DP  RH WIND       PRES   REMARKS
SIERRA VISTA   CLOUDY    47  37  68 E5        29.99F
DOUGLAS        CLOUDY    50  37  61 CALM      30.00F
EMPIRE MTNS    NOT AVBL
MULESHOE RANCH N/A       45  38  76 CALM              *PRESERVE
HEADQUARTERS   N/A       46  34  62 CALM              *CHIRICAHUA MTNS
$$

.............................NOTES.............................
THIS IS AN AUTOMATED COLLECTIVE WITH MINIMAL QUALITY CONTROL.
PIMA CO DEQ SITES HAVE NONSTANDARD WIND SENSOR HEIGHTS.
PIMA CO DEQ SITES DO NOT REPORT WIND GUSTS.
* INDICATES WIND SENSORS LOCATED AT 20 FEET INSTEAD OF 33 FEET.
..............................KEY..............................
SKY/WX - SKY CONDITION/WEATHER
TMP    - TEMPERATURE IN FAHRENHEIT
DP     - DEWPOINT IN FAHRENHEIT
RH     - RELATIVE HUMIDITY IN PERCENT
WIND   - DIRECTION AND SPEED IN MILES PER HOUR (MPH)
VRB    - VARIABLE WIND DIRECTION
PRES   - MEAN SEA LEVEL PRESSURE IN INCHES OF MERCURY
         F - FALLING PRESSURE   R - RISING PRESSURE
         S - STEADY PRESSURE
VSB    - VISIBILITY IN MILES
HX     - HEAT INDEX IN FAHRENHEIT
WCI    - WIND CHILL INDEX IN FAHRENHEIT
N/A    - NOT AVAILABLE
AFB    - AIR FORCE BASE
         DAVIS-MONTHAN IS DAVIS-MONTHAN AIR FORCE BASE
CYN    - CANYON
MTNS   - MOUNTAINS
NCA    - NATIONAL CONSERVATION AREA
NR     - NEAR
VLY    - VALLEY
CONTL  - CONTINENTAL
PIMA CO DEQ - PIMA COUNTY DEPT OF ENVIRONMENTAL QUALITY



USA.gov is the U.S. government's official web portal to all federal, state and local government web resources and services.